Location: Burland Observatory
(39.4088°N, 105.4217°W)
Time: 01:15:35
(UTC-07:00)

SR - Pass Details

Date: 16 December 2019
Orbit: 574 x 882 km, 66.7° (Epoch: 21 January)

Event Time Altitude Azimuth Distance (km) Brightness Sun altitude
Rises 15:01:00 0° 343° (NNW) 3,481 ? 14.0°
Reaches altitude 10° 15:04:58 10° 8° (N) 2,518 ? 13.5°
Maximum altitude 15:07:52 14° 38° (NE) 2,226 ? 13.1°
Drops below altitude 10° 15:10:42 10° 69° (ENE) 2,454 ? 12.7°
Sets 15:14:27 0° 94° (E) 3,326 ? 12.2°
